www.pogodaiklimat.ru

Погода и климат >> Архив погоды >> Гренландия >> Mittarfik Qaanaaq


ПОГОДА в Mittarfik Qaanaaq

  • Прогноз погоды в Mittarfik Qaanaaq
  • Монитор погоды в Mittarfik Qaanaaq

АРХИВ ПОГОДЫ в Mittarfik Qaanaaq

Время (UTC), дата Ветер
(напр.,м/с)
 
Видим.   Явления Облачность Т
(С)
Тd
(С)
f
(%)
Тe
(С)
Тes
(С)
Комфортность P
(гПа)
Po
(гПа)
Тmin
(С)
Tmax
(С)
R
(мм)
R24
(мм)
S
(см)
10 13.06 В 10 35 км н/о +12.8 -3.1 33 +10 +10 1021.3 1019.0
11 13.06 В 11 35 км н/о +13.5 -3.3 31 +11 +11 1021.0 1018.7
12 13.06 В 11
{17}
35 км н/о +13.7 -3.6 30 +11 +11 1021.3 1019.0
13 13.06 ЮВ 9 35 км н/о +14.0 -3.8 29 +12 +12 1020.6 1018.3
14 13.06 В 11 35 км н/о +13.4 -3.0 32 +11 +11 1020.0 1017.7
15 13.06 ЮВ 12 40 км н/о +14.3 -3.5 29 +12 +12 1019.5 1017.2
16 13.06 В 10 35 км н/о +15.0 -3.9 27 +13 +13 1019.8 1017.5
17 13.06 Ю 8 6000 м н/о +9.9 -1.8 44 +6 +6 1020.2 1017.9
18 13.06 ЮВ 6
{19}
35 км н/о +9.9 -2.1 43 +7 +7 1020.8 1018.5 +9.7 +15.2
19 13.06 ЮВ 7 35 км н/о +11.2 -3.0 37 +9 +9 1021.0 1018.7
20 13.06 ЮВ 5 40 км н/о +10.5 -2.9 39 +8 +8 1021.6 1019.3
21 13.06 ЮВ 5
{11}
30 км н/о +10.1 -1.9 43 +8 +8 1021.9 1019.6
22 13.06 ЮВ 5 40 км н/о +9.9 -2.1 43 +7 +7 1022.2 1019.9
23 13.06 ЮВ 7 45 км н/о +11.5 -2.0 39 +9 +9 1022.5 1020.2
00 14.06 ЮВ 7
{11}
45 км н/о +9.9 -2.1 43 +7 +7 1022.4 1020.0
01 14.06 ЮВ 7 45 км н/о +9.6 -2.1 44 +6 +6 1022.7 1020.4
02 14.06 ЮВ 7 45 км н/о +9.0 -2.3 45 +6 +6 1023.1 1020.8
03 14.06 ЮВ 8 45 км н/о +9.3 -2.3 44 +6 +6 1023.8 1021.4
04 14.06 ЮВ 7 45 км н/о +9.4 -2.6 43 +6 +6 1023.3 1021.0
05 14.06 ЮВ 7 50 км н/о +8.3 -2.0 48 +4 +4 1024.3 1021.9
06 14.06 ЮВ 5 50 км н/о +7.9 -1.3 52 +5 +5 1024.9 1022.5 +7.9 +11.7
07 14.06 ЮВ 6 50 км н/о +8.1 -0.8 53 +5 +5 1025.1 1022.8
08 14.06 ЮВ 4 45 км н/о +8.6 -0.3 54 +6 +6 1025.0 1022.7
09 14.06 ЮВ 7 45 км н/о +9.4 -0.1 51 +6 +6 1025.0 1022.7
10 14.06 ЮВ 5 50 км н/о +9.3 -0.5 50 +7 +7 1024.8 1022.5
11 14.06 ЮВ 6 45 км н/о +10.3 -0.5 47 +8 +8 1024.7 1022.4
12 14.06 В 6 45 км н/о +10.7 -0.4 46 +8 +8 1023.9 1021.5
13 14.06 В 7 40 км н/о +11.6 -0.6 43 +9 +9 1023.2 1020.9
14 14.06 В 5 35 км н/о +13.2 -1.2 37 +12 +12 1022.7 1020.4
15 14.06 ЮВ 5 45 км н/о +11.1 -1.0 43 +9 +9 1022.5 1020.2
16 14.06 З 1 45 км н/о +8.5 -0.7 52 +9 +9 1023.0 1020.6
17 14.06 ЮЗ 2 35 км н/о +9.0 -0.2 52 +8 +8 1023.0 1020.6
18 14.06 Ю 1
{10}
30 км н/о +7.9 +0.6 60 +9 +9 1022.9 1020.5 +6.7 +13.3
19 14.06 ЮЗ 1 28 км н/о +6.0 0.0 65 +5 +5 1023.2 1020.8
20 14.06 Ю 2 26 км н/о +4.2 -0.9 69 +2 +2 1023.4 1021.1
21 14.06 Ю 2 16 км н/о +2.9 -0.3 79 -0 -0 1023.8 1021.4
22 14.06 Ю 1 21 км н/о +2.8 0.0 82 +1 +1 1024.1 1021.8
23 14.06 ЮЗ 1 22 км н/о +3.4 -0.2 77 +2 +2 1024.2 1021.8
00 15.06 З 1 21 км н/о +2.7 -0.3 81 +1 +1 1024.2 1021.8
01 15.06 З 1 30 км н/о +2.3 -0.9 79 +1 +1 1024.0 1021.6
02 15.06 Ю 1 35 км н/о +3.1 -0.3 78 +2 +2 1023.8 1021.4
03 15.06 З 1 40 км н/о +1.8 -0.6 84 0 0 1023.9 1021.5
04 15.06 З 1 35 км н/о +2.2 -0.4 83 +2 +2 1023.4 1021.0
05 15.06 Ю 1 30 км в посл. час морось {ливн. осадки} н/о +1.9 0.0 87 +2 +2 1024.0 1021.5
06 15.06 Ю 1 25 км {ливн. осадки} н/о +1.4 -0.6 87 +1 +1 1023.9 1021.5 +1.1 +8.5
07 15.06 Ю 1 29 км н/о +1.6 -0.6 85 +1 +1 1023.9 1021.5
08 15.06 З 1 40 км н/о +2.1 -0.1 85 0 0 1024.3 1021.9
09 15.06 ЮЗ 1 30 км н/о +2.1 -0.3 84 +2 +2 1024.2 1021.8
10 15.06 З 1 35 км н/о +3.2 -0.4 77 +3 +3 1024.0 1021.6
11 15.06 З 1 35 км н/о +3.4 +0.2 80 +3 +3 1024.0 1021.6
12 15.06 З 1 30 км н/о +2.8 -0.2 81 +3 +3 1024.3 1021.9
13 15.06 ЮЗ 1 40 км н/о +3.4 -0.2 77 +2 +2 1024.5 1022.1
14 15.06 ЮЗ 1 28 км н/о +5.3 0.0 69 +6 +6 1024.5 1022.2
15 15.06 Ю 2 35 км {ливн. осадки, осадки} н/о +3.4 0.0 78 +1 +1 1024.8 1022.4
16 15.06 ЮЗ 1 30 км в посл. час осадки {ливн. осадки} н/о +2.8 -0.6 78 +1 +1 1024.9 1022.5
17 15.06 ЮЗ 2 24 км слаб. ливневой дождь {осадки} н/о +2.6 0.0 83 0 0 1025.0 1022.6
18 15.06 З 3 35 км в посл. час морось {ливн. осадки} н/о +3.7 +0.5 80 -0 -0 1025.3 1022.9 +1.2 +6.3
19 15.06 З 2 30 км {ливн. осадки} н/о +4.6 +0.6 75 +2 +2 1025.7 1023.3
20 15.06 З 1 45 км {ливн. осадки} н/о +3.4 +0.2 80 +2 +2 1025.9 1023.5
21 15.06 З 1 40 км {ливн. осадки} н/о +4.3 +0.9 79 +4 +4 1026.2 1023.8
22 15.06 З 1 50 км {ливн. осадки} н/о +4.8 +1.4 79 +5 +5 1026.4 1024.0
23 15.06 ЮВ 2 40 км {ливн. осадки} н/о +4.1 +0.9 80 +1 +1 1026.4 1024.1
00 16.06 Ю 1 19 км слаб. морось н/о +3.5 +0.7 82 +3 +3 1026.5 1024.1
01 16.06 ЮВ 2 40 км в посл. час морось {ливн. осадки} н/о +3.1 +1.2 87 0 0 1026.8 1024.4
02 16.06 Ю 1 40 км {ливн. осадки, морось} н/о +1.3 -0.6 87 +1 +1 1027.0 1024.6
03 16.06 ЮЗ 2 35 км {ливн. осадки, морось} н/о +1.7 -0.3 87 -1 -1 1027.0 1024.5
04 16.06 ЮВ 2 40 км {ливн. осадки, морось} н/о +2.3 +0.8 90 -1 -1 1026.9 1024.5
05 16.06 ЮВ 3 45 км {ливн. осадки, морось} н/о +3.7 +1.2 84 -0 -0 1026.9 1024.5
06 16.06 ЮВ 3 45 км н/о +2.1 0.0 86 -2 -2 1026.9 1024.5 +1.2 +4.9
07 16.06 ЮВ 3 16 км слаб. морось {дождь} н/о +3.2 +1.1 86 -1 -1 1026.8 1024.4
08 16.06 В 3 45 км {ливн. осадки, дождь} н/о +3.0 +0.9 86 -1 -1 1026.9 1024.5
09 16.06 ЮВ 4 40 км {ливн. осадки, дождь} н/о +2.1 0.0 86 -3 -3 1027.0 1024.5
10 16.06 Ю 2 45 км {ливн. осадки, дождь} н/о +2.0 -0.2 85 -1 -1 1026.7 1024.3
11 16.06 Ю 3 45 км {ливн. осадки, дождь} н/о +1.4 -0.5 87 -3 -3 1026.8 1024.4
12 16.06 Ю 1 45 км н/о +1.8 +0.3 90 +1 +1 1026.5 1024.1
13 16.06 Ю 1 2200 м дымка н/о +2.6 +0.5 86 +2 +2 1026.3 1023.9
14 16.06 ЮЗ 2 3400 м дымка н/о +3.8 -0.2 75 +2 +2 1026.0 1023.6
15 16.06 ЮЗ 1 16 км н/о +3.0 +0.2 82 +1 +1 1025.8 1023.4
16 16.06 ЮЗ 1 24 км н/о +4.0 +0.6 78 +3 +3 1025.2 1022.8
17 16.06 З 1 20 км н/о +3.6 -0.2 76 +2 +2 1025.1 1022.8
18 16.06 ЮЗ 1 30 км н/о +3.2 0.0 80 +3 +3 1025.1 1022.7 +1.1 +5.1
19 16.06 ЮЗ 1 1200 м дымка н/о +2.7 +0.5 85 +1 +1 1024.8 1022.4
20 16.06 З 1 500 м туман {дымка} н/о +2.4 +0.3 86 +1 +1 1024.5 1022.1
21 16.06 ЮЗ 1 1300 м в посл. час туман {дымка} н/о +2.7 +1.2 90 +2 +2 1024.2 1021.8
22 16.06 Ю 2 30 км {туман, дымка} н/о +1.8 +0.1 88 -2 -2 1023.9 1021.5
23 16.06 Ю 3 45 км {туман, дымка} н/о +1.8 +0.5 91 -3 -3 1023.7 1021.3
00 17.06 ЮВ 4 45 км н/о +2.5 +1.0 90 -2 -2 1023.2 1020.8
01 17.06 Ю 2 3100 м дымка н/о +0.9 -0.6 90 -3 -3 1023.3 1020.9
02 17.06 ЮВ 1 45 км н/о +1.0 -0.5 90 -1 -1 1022.8 1020.4
03 17.06 ЮВ 2 50 км н/о +1.2 -0.7 87 -2 -2 1022.3 1019.9
04 17.06 ЮВ 2 45 км н/о +1.0 -0.5 90 -3 -3 1022.2 1019.8
05 17.06 ЮВ 1 50 км н/о +0.9 -0.9 88 -1 -1 1021.8 1019.4
06 17.06 ЮВ 2 50 км н/о +0.9 -0.8 88 -2 -2 1021.4 1019.0 +0.7 +3.2
07 17.06 Ю 1 45 км н/о +1.2 -0.3 90 -1 -1 1021.1 1018.7
08 17.06 Ю 1 45 км н/о +2.0 -0.4 84 0 0 1020.6 1018.2
09 17.06 Ю 2 50 км н/о +1.4 -0.5 87 -2 -2 1020.3 1018.0
10 17.06 Ю 2 1000 м дымка н/о +0.9 -0.6 90 -3 -3 1020.1 1017.7
11 17.06 Ю 1 40 км н/о +1.2 -0.3 90 -1 -1 1019.9 1017.5
12 17.06 Ю 2 35 км н/о +2.1 +0.6 90 -1 -1 1019.6 1017.2
13 17.06 Ю 3 28 км н/о +1.3 -0.7 87 -3 -3 1018.9 1016.5
14 17.06 Ю 3 45 км н/о +1.4 -0.8 85 -3 -3 1018.3 1015.9
15 17.06 Ю 2 45 км н/о +2.3 -0.1 84 -0 -0 1017.4 1015.0
16 17.06 ЮВ 4 23 км н/о +9.3 -0.8 49 +7 +7 1016.7 1014.4
17 17.06 СЗ 3 35 км н/о +6.0 -0.3 64 +3 +3 1016.4 1014.0
18 17.06 З 3 35 км н/о +5.9 -1.3 60 +3 +3 1016.1 1013.8 +0.8 +11.6
19 17.06 ЮЗ 1 40 км н/о +5.6 -1.1 62 +5 +5 1015.4 1013.1
20 17.06 Ю 2 30 км н/о +5.7 -0.6 64 +4 +4 1014.7 1012.3
21 17.06 ЮЗ 2 29 км н/о +5.6 -0.4 65 +4 +4 1014.2 1011.9
22 17.06 Ю 1 30 км н/о +5.1 0.0 70 +4 +4 1013.6 1011.2
23 17.06 Ю 2 27 км н/о +4.6 -0.3 70 +2 +2 1012.9 1010.6
00 18.06 Ю 2 40 км н/о +5.5 -0.7 64 +4 +4 1012.3 1009.9
01 18.06 Ю 1 35 км н/о +6.4 -0.1 63 +7 +7 1011.8 1009.5
02 18.06 ЮЗ 1 40 км н/о +6.6 -1.2 57 +7 +7 1011.4 1009.1
03 18.06 ЮЗ 1 26 км н/о +3.9 -0.5 73 +3 +3 1011.1 1008.8
04 18.06 ЮВ 2 35 км н/о +3.2 -0.6 76 0 0 1010.9 1008.5
05 18.06 Ю 1 45 км н/о +5.4 -1.1 63 +6 +6 1010.8 1008.4
06 18.06 Ю 2 45 км н/о +5.1 -0.9 65 +3 +3 1010.3 1007.9 +2.1 +7.5
07 18.06 ЮВ 2 45 км н/о +5.9 -1.8 58 +4 +4 1009.9 1007.6
08 18.06 Ю 1 45 км н/о +4.9 -1.3 64 +4 +4 1009.6 1007.2
09 18.06 Ю 1 45 км н/о +4.9 -1.5 63 +5 +5 1009.5 1007.1
10 18.06 СЗ 1 45 км в посл. час дождь {ливн. осадки} н/о +4.3 +0.3 75 +3 +3 1009.2 1006.9
11 18.06 С 1 30 км слаб. ливневой дождь н/о +5.6 -0.7 64 +5 +5 1009.2 1006.9
12 18.06 Ю 1 45 км в посл. час дождь {ливн. осадки} н/о +3.7 +0.1 77 +2 +2 1009.2 1006.8
13 18.06 Ю 1 45 км {ливн. осадки} н/о +5.3 +0.2 70 +6 +6 1008.9 1006.5
14 18.06 Ю 2 45 км {ливн. осадки} н/о +3.7 -0.7 73 +2 +2 1008.6 1006.3
15 18.06 ЮВ 1 11 км в посл. час морось {ливн. осадки} н/о +4.2 +0.2 75 +4 +4 1008.3 1005.9
16 18.06 ЮВ 1 26 км {ливн. осадки} н/о +4.8 +0.3 73 +4 +4 1007.8 1005.5
17 18.06 ЮЗ 1 40 км {ливн. осадки} н/о +3.7 -0.7 73 +2 +2 1007.6 1005.3
18 18.06 ЮЗ 1 35 км слаб. ливневой дождь {осадки} н/о +3.0 -0.6 77 +2 +2 1007.6 1005.2 +2.8 +7.4
19 18.06 ЮЗ 1 13 км слаб. ливневой дождь н/о +4.4 +1.6 82 +3 +3 1007.7 1005.3
20 18.06 штиль 0 12 км слаб. дождь н/о +4.2 +1.4 82 +3 +3 1007.5 1005.1
21 18.06 З 1 14 км морось {ливн. осадки} н/о +2.8 +0.7 86 +1 +1 1007.7 1005.3
22 18.06 З 1 19 км морось {ливн. осадки} н/о +4.8 +2.7 86 +3 +3 1007.4 1005.0
23 18.06 З 1 29 км морось {ливн. осадки} н/о +4.6 +1.2 79 +3 +3 1007.1 1004.7
00 19.06 ЮВ 6 16 км морось н/о +6.0 +0.4 67 +1 +1 1006.4 1004.1
01 19.06 ЮВ 5 12 км слаб. дождь {морось} н/о +5.4 +0.7 72 +1 +1 1006.3 1003.9
02 19.06 В 4 17 км морось {дождь} н/о +5.6 +0.5 70 +2 +2 1005.4 1003.0
03 19.06 В 5 15 км слаб. дождь {морось} н/о +5.5 +0.6 71 +1 +1 1004.6 1002.3
04 19.06 В 6 14 км слаб. дождь {морось} н/о +5.9 +0.5 68 +1 +1 1003.8 1001.5
05 19.06 В 8 18 км морось {дождь} н/о +5.8 +0.4 68 +1 +1 1003.2 1000.9
06 19.06 В 8 13 км слаб. дождь {морось} н/о +5.4 +0.7 72 0 0 1002.5 1000.2 +2.7 +6.0
07 19.06 В 8 12 км слаб. дождь н/о +5.3 +0.4 71 -0 -0 1001.7 999.4
08 19.06 В 9 15 км слаб. дождь н/о +5.5 +0.2 69 -0 -0 1000.9 998.6
09 19.06 В 9 10 км слаб. дождь н/о +5.4 +0.3 70 -0 -0 1000.1 997.8
10 19.06 В 8 10 км слаб. дождь н/о +5.7 +0.3 68 0 0 999.5 997.1
11 19.06 В 8 8000 м слаб. дождь н/о +5.5 +0.4 70 0 0 998.8 996.4
12 19.06 В 6 8000 м слаб. дождь н/о +5.2 +0.5 72 0 0 998.2 995.9
13 19.06 ЮВ 5 15 км слаб. дождь н/о +5.5 +0.8 72 +1 +1 997.8 995.5
14 19.06 ЮВ 6 20 км слаб. дождь н/о +5.0 +0.5 73 0 0 997.7 995.4
15 19.06 В 6
{12}
11 км морось {дождь} н/о +5.1 0.0 70 0 0 997.6 995.3
16 19.06 В 5 35 км морось {дождь} н/о +5.1 +0.4 72 +1 +1 997.3 995.0
17 19.06 ЮВ 4 40 км слаб. морось {дождь} н/о +4.2 -1.5 66 0 0 997.5 995.2
18 19.06 ЮВ 3
{12}
45 км в посл. час морось н/о +4.4 -3.2 58 +2 +2 997.2 994.9 +3.2 +5.9
19 19.06 Ю 2 12 км слаб. дождь со снегом н/о +2.8 -2.0 71 +1 +1 997.9 995.6
20 19.06 Ю 2 22 км слаб. дождь н/о +2.4 -1.4 76 -1 -1 998.2 995.9
21 19.06 Ю 1 40 км {снег, дождь} н/о +3.4 -0.4 76 +2 +2 998.8 996.5
22 19.06 ЮВ 7 35 км {снег, дождь} н/о +3.0 -3.1 64 -3 -3 999.8 997.5
23 19.06 Ю 5 50 км {снег, дождь} н/о +1.6 -4.0 66 -4 -4 1000.9 998.5
00 20.06 Ю 2
{11}
45 км в посл. час осадки {ливн. осадки} н/о +1.9 -4.4 63 -0 -0 1001.9 999.5
01 20.06 ЮВ 4 45 км ливневой дождь н/о +2.4 -3.9 63 -2 -2 1002.4 1000.1
03 20.06 В 4 1400 м слаб. снег н/о +1.7 -2.0 76 -3 -3 1003.7 1001.3
04 20.06 Ю 4 50 км в посл. час снег {ливн. осадки} н/о +2.3 -3.6 65 -2 -2 1004.1 1001.8
05 20.06 ЮВ 4 4300 м слаб. ливневой дождь н/о +2.3 -2.5 71 -2 -2 1005.0 1002.6
06 20.06 В 3 800 м слаб. снег н/о +1.0 -1.6 83 -3 -3 1005.7 1003.4 +1.0 +4.4
07 20.06 СВ 1
{12}
2800 м слаб. снег н/о +1.6 -1.7 79 -0 -0 1006.4 1004.0
08 20.06 СВ 1 3300 м слаб. снег н/о +2.4 -2.2 72 +1 +1 1006.8 1004.4

 

Местоположение метеостанции Mittarfik Qaanaaq (Гренландия): широта 77.48 долгота -69.38 высота над уровнем моря 16 м.

В архиве по умолчанию представлена погода в Mittarfik Qaanaaq за последнюю неделю. Архивные данные за месяц целиком и за предыдущие месяцы, начиная с января 2011 года, Вы можете получить, выбрав интересующий диапазон дат из раскрывающегося списка и нажав кнопку "Ввод!".


*Определитесь, кто Вы:
робот инопланетянин человек

Внимание! Время в таблицах - всемирное. Для получения местного времени необходимо прибавить поправку, которая равна -4 ч.

Смотрите также архив погоды в соседних городах и на ближайших метеорологических станциях:

Погода в Kitsissut (Гренландия) (131 км)
Погода в Юрике (Нунавут, Канада) (452 км)
Погода в Юрике (Нунавут, Канада) (453 км)
Погода в Kitsissorsuit (Гренландия) (496 км)
Погода в Алерте (Нунавут, Канада) (574 км)
Погода в Понд-Инлете (Нунавут, Канада) (584 км)
Погода в Понд-Инлете (Нунавут, Канада) (587 км)
Погода в Mittarfik Upernavik (Гренландия) (642 км)
Погода в Арктик Бей (Нунавут, Канада) (663 км)
Погода в Аэропорту Ресольют Бэй (Нунавут, Канада) (741 км)

Пояснения к столбцам:

Ветер - указаны скорость ветра в м/с - средняя за 10 мин, порывы в срок и между сроками (в фигурных скобках) и направление, откуда дует ветер: С - северный, СВ - северо-восточный, В - восточный, ЮВ - юго-восточный, Ю - южный, ЮЗ - юго-западный, З - западный, СЗ - северо-западный.
Видимость - горизонтальная дальность видимости в метрах или километрах. При видимости от 1 до 10 км при отсутствии осадков обычно наблюдается дымка, при ухудшении видимости до 1 км и менее - туман. В сухую погоду видимость может ухудшаться дымом, пылью или мглою.
Явления - указаны атмосферные явления, наблюдавшиеся в срок или в последний час перед сроком; фигурными скобками обозначены явления, наблюдавшиеся между сроками (за 1-3 часа до срока); квадратными скобками обозначены град или гололедные отложения с указанием их диаметра в мм.
Облачность - указаны через наклонную черту общая и нижняя облачность в баллах и высота нижней границы облаков в метрах; квадратными скобками обозначены формы облаков: Ci - перистые, Cs - перисто-слоистые, Cc - перисто-кучевые, Ac - высококучевые, As - высокослоистые, Sc - слоисто-кучевые, Ns - слоисто-дождевые, Cu - кучевые, Cb - кучево-дождевые. Подробнее классификацию облаков см. в Атласе облаков (PDF).
T - Температура воздуха - температура, измеренная на высоте 2 м над землей.
Td - Температура точки росы - температура, при понижении до которой содержащийся в воздухе водяной пар достигнет насыщения.
f - Относительная влажность воздуха - влажноcть воздуха, измеренная на высоте 2 м над землей.
Te - Эффективная температура - температура, которую ощущает одетый по сезону человек в тени. Характеристика душности погоды. При расчете учитывается влияние влажности воздуха и скорости ветра на теплоощущения человека.
Tes - Эффективная температура на солнце - температура, которую ощущает человек, с поправкой на солнечный нагрев. Характеристика знойности погоды. Зависит от высоты солнца над горизонтом, облачности и скорости ветра. Ночью, в пасмурную погоду, а также при ветре 12 м/с и более поправка равна нулю.
P - Атмосферное давление - приведенное к уровню моря атмосферное давление.
Po - Атмосферное давление - измеренное на уровне метеостанции атмосферное давление.
Tmin - Минимальная температура - минимум температуры воздуха на высоте 2 м над землей.
Tmax - Максимальная температура - максимум температуры воздуха на высоте 2 м над землей.
R - Количество осадков - Количество выпавших осадков за период времени, мм. При наведении курсора мыши на число - период времени, за который выпало указанное количество осадков.
R24 - Количество осадков - Количество выпавших осадков за 24 часа, мм.
S - Снежный покров - Высота снежного покрова, см. При наведении курсора мыши на число - состояние снежного покрова и степень покрытия местности в баллах.